Wind_Speed
40 38 37 35 35 38 37 37 35 32 33 34 31 29 28 30 25 22 23 23 23 24 27 30 32 32 32 31 30 32 31 29 28 28 29 28 26 27 26 28 30 31 31 32
42 40 40 39 40 39 41 39 36 32 37 39 35 31 29 31 27 25 25 25 26 27 28 31 34 34 33 34 33 35 36 33 30 30 30 29 28 28 29 30 31 32 34 34
46 44 42 42 43 45 43 41 39 36 40 42 41 39 32 34 29 29 28 27 29 30 31 33 34 36 38 36 38 40 39 32 31 31 30 28 28 28 30 31 32 34 35 36
50 49 46 45 45 46 46 45 43 43 44 46 46 48 39 35 34 34 32 31 32 33 35 36 37 37 40 41 40 40 38 33 31 32 30 31 34 32 34 34 35 37 39 41
49 49 48 47 46 47 49 49 47 48 48 49 49 53 46 38 36 35 36 35 36 36 37 37 37 38 39 43 42 40 35 34 33 33 33 32 34 34 34 34 34 38 39 41
53 53 52 50 49 49 51 53 52 52 51 54 51 53 54 46 42 41 39 39 37 39 38 38 39 41 42 42 41 41 37 36 36 35 37 37 37 38 38 38 41 40 42 41
54 55 53 52 51 51 52 53 53 53 57 56 57 56 56 53 52 46 41 39 39 38 40 43 43 44 44 45 44 42 43 41 40 38 37 38 38 39 38 41 43 43 44 43
55 57 55 52 51 50 48 49 51 55 57 60 62 59 53 56 54 53 50 48 45 44 43 44 45 47 50 52 51 47 44 44 44 42 41 43 42 41 40 43 46 45 46 46
52 56 55 53 51 51 54 55 52 55 58 62 64 61 59 57 57 58 55 56 49 47 45 46 46 48 49 47 46 46 46 45 45 45 45 45 46 45 44 45 46 44 42 42
52 57 58 57 55 54 54 55 56 58 60 63 65 63 60 60 62 61 61 57 53 53 51 49 53 49 45 40 39 40 45 47 48 48 47 47 47 46 44 44 44 42 42 42
55 56 58 58 59 58 57 58 60 59 60 61 63 64 60 62 63 62 60 59 57 56 58 57 56 57 52 44 40 41 43 44 45 46 46 46 46 45 44 43 43 44 44 43
62 63 67 65 62 59 58 55 56 60 63 61 59 65 58 59 61 63 63 61 61 61 60 61 60 57 51 51 43 43 45 46 43 42 43 44 45 45 45 46 46 46 44 44
51 59 64 66 68 68 66 63 62 61 63 64 64 62 57 60 62 63 63 62 65 66 63 62 58 55 54 51 50 47 44 43 45 45 43 47 49 49 48 49 50 48 45 44
45 46 51 51 51 55 60 63 65 62 65 71 71 67 64 66 67 68 69 68 67 62 57 55 55 54 55 54 55 53 49 44 42 43 45 48 53 56 57 57 55 51 48 46
51 53 48 48 49 48 54 52 54 57 60 60 63 57 56 53 53 57 59 58 56 52 52 54 54 54 53 54 53 51 47 42 42 43 45 51 52 52 52 51 52 50 49 51
55 53 57 55 54 52 52 53 55 57 60 58 61 60 48 46 47 52 52 51 52 53 57 57 56 56 52 51 50 48 47 48 47 46 44 45 45 49 49 50 51 53 52 52
53 58 61 58 63 62 61 54 60 58 54 55 58 56 51 52 54 57 56 54 56 55 51 54 55 55 50 49 50 52 53 53 53 52 50 49 49 50 52 53 54 55 55 56
70 66 65 63 69 72 62 57 57 60 62 64 61 55 57 59 58 62 58 56 54 56 57 55 56 57 56 55 56 57 57 56 57 57 56 54 52 53 54 53 53 54 54 55
77 75 78 79 73 72 69 66 69 65 63 58 58 58 58 60 64 64 60 60 58 57 58 58 57 59 60 60 60 60 60 60 58 57 57 57 56 56 56 57 58 60 60 60
69 72 72 75 85 87 67 71 73 69 70 63 61 61 59 59 60 60 59 60 60 61 60 58 59 59 61 61 60 61 61 61 60 60 59 60 60 60 60 61 61 59 58 58
64 66 68 69 69 76 76 79 79 82 78 74 70 66 64 62 62 59 59 59 58 59 60 61 63 62 62 62 63 62 63 65 67 66 67 65 65 64 64 62 61 57 57 59
67 67 67 67 68 72 75 83 83 80 78 83 82 81 82 83 79 76 70 67 67 66 65 66 69 72 75 74 71 73 73 74 74 74 75 79 80 76 73 71 72 69 68 71
71 70 69 69 70 69 69 72 76 75 69 60 53 60 78 82 80 80 83 81 80 82 83 82 77 78 81 83 87 87 85 86 87 86 85 79 73 69 67 69 67 68 70 69
73 72 74 74 72 70 70 70 70 70 68 65 63 64 67 73 74 70 64 54 64 68 67 71 71 72 74 75 73 76 79 81 81 77 76 69 66 66 67 66 68 71 69 61
72 72 74 75 74 73 71 70 70 72 74 73 73 77 77 74 71 72 71 69 68 70 73 71 68 65 63 63 63 66 69 66 64 63 63 64 65 64 64 64 66 68 66 58
71 71 71 72 68 68 69 65 66 68 70 71 74 75 77 79 75 74 73 73 74 72 67 70 69 68 62 61 63 66 65 66 67 64 61 59 61 64 65 64 56 50 47 47
Wind_Direction
236 235 237 235 234 232 237 238 241 242 244 245 243 234 237 246 248 254 262 271 279 280 280 288 289 294 300 306 311 315 313 295 284 280 277 274 271 270 272 273 274 276 276 276
238 238 238 234 236 238 240 242 245 244 248 249 246 241 239 249 253 256 263 273 277 281 282 284 290 294 296 303 304 309 308 299 290 281 276 274 273 273 276 278 277 276 276 278
238 239 238 237 236 238 241 245 246 246 248 251 251 251 243 247 257 261 266 269 275 278 282 287 291 294 297 302 303 303 302 296 291 283 277 274 271 270 272 274 275 276 277 280
238 238 238 240 240 242 243 246 247 246 245 252 253 259 248 248 252 258 265 269 272 278 284 286 289 291 296 301 300 299 293 288 285 283 281 275 271 270 269 272 275 276 276 277
242 241 242 241 242 242 244 245 247 247 248 249 255 259 260 253 254 259 261 266 270 276 279 282 284 288 292 295 295 295 285 284 277 277 276 277 275 272 267 271 276 278 278 277
240 241 241 242 241 243 245 247 248 250 251 249 253 258 262 264 259 257 259 264 267 271 275 278 282 286 290 291 295 296 286 276 275 274 274 277 274 271 268 270 275 282 281 279
243 244 244 245 245 245 246 248 251 251 252 253 256 255 262 266 271 268 267 269 271 272 274 278 283 287 288 292 294 293 288 278 275 274 276 277 278 277 277 276 277 281 279 278
239 240 243 245 248 251 250 250 251 255 255 255 253 256 259 263 267 271 273 269 272 272 272 276 282 288 295 295 293 289 285 279 277 278 276 275 279 280 276 276 277 279 280 277
246 245 246 245 246 246 247 247 250 252 253 256 254 255 258 263 265 268 272 277 280 276 277 278 283 288 290 289 285 281 279 276 274 274 275 274 275 277 277 276 279 281 281 280
243 247 246 245 245 244 247 248 248 249 251 253 255 257 259 261 266 267 270 273 278 280 280 282 286 288 290 291 279 271 269 270 272 273 275 277 276 276 273 275 276 277 280 280
241 243 245 245 245 247 246 247 251 253 253 257 259 255 258 262 266 268 271 272 275 282 286 289 292 293 293 284 277 277 270 270 271 273 276 279 278 276 277 277 277 278 281 279
239 243 246 248 248 246 247 248 248 249 251 253 256 257 260 265 270 271 273 280 281 281 285 287 289 290 287 283 273 269 271 273 276 277 278 281 278 276 276 276 276 281 280 280
243 247 249 250 252 250 249 250 251 253 254 256 260 261 262 265 268 272 274 277 278 280 283 285 285 283 282 281 279 274 275 272 270 272 273 276 276 275 275 275 278 280 279 277
239 240 240 243 251 255 254 253 254 256 258 258 261 264 262 265 268 269 272 274 276 277 277 274 273 276 278 277 279 281 280 280 277 272 266 265 268 270 272 275 277 275 274 275
239 238 241 239 243 246 249 253 255 254 254 255 259 259 259 261 265 266 267 267 268 267 266 268 273 274 275 278 278 281 283 282 279 274 267 264 264 265 266 268 270 270 271 274
238 239 242 241 241 240 240 247 251 252 254 253 257 258 262 262 261 262 260 260 263 266 267 269 272 275 277 279 281 279 278 278 279 278 275 274 272 272 271 269 269 272 275 278
242 240 240 242 240 244 246 243 244 251 253 260 258 259 256 251 252 257 257 258 259 262 269 272 272 272 272 274 276 278 278 278 278 278 277 276 274 274 274 274 274 275 275 280
249 243 242 239 240 243 246 239 243 247 256 256 257 257 257 259 255 254 258 260 260 264 266 266 269 272 275 276 275 274 274 275 278 281 280 279 277 278 278 277 277 277 278 280
252 253 255 253 243 243 239 245 248 250 246 251 255 259 259 258 260 261 261 259 261 262 264 265 264 267 268 270 272 275 276 277 278 278 279 280 280 278 278 279 281 283 284 284
250 254 258 258 260 256 242 243 253 258 250 252 254 253 255 257 260 260 258 259 259 259 259 261 262 263 267 269 269 269 270 272 273 274 277 279 280 283 284 284 284 282 283 282
253 255 258 260 262 263 251 254 261 267 257 258 257 256 255 255 257 256 257 257 257 257 259 262 263 264 265 266 268 273 276 276 277 277 277 281 286 285 283 284 284 281 278 277
254 256 257 259 263 265 262 262 265 269 270 269 268 269 269 262 256 256 257 260 264 266 265 267 271 272 274 270 268 273 277 280 283 285 286 285 285 286 288 286 284 283 281 280
257 260 261 261 261 263 264 264 265 267 271 270 263 260 268 271 273 274 274 273 275 274 273 274 277 273 270 270 273 277 277 280 282 284 284 285 285 283 283 283 278 275 275 275
258 259 261 261 261 265 265 264 265 264 261 259 262 263 264 268 271 274 271 259 265 269 272 275 278 275 273 273 274 275 276 277 276 277 278 275 276 277 275 274 275 274 272 268
260 261 262 265 264 266 265 265 263 262 261 260 259 259 262 264 264 264 265 265 265 268 273 273 270 269 273 274 276 276 276 275 274 274 275 276 278 278 277 276 277 274 266 265
259 264 265 267 265 267 266 265 266 266 264 260 258 259 262 264 264 264 263 265 266 268 267 264 265 273 271 273 274 273 270 272 273 275 277 279 281 279 274 270 267 267 278 288
Height
5796 5798 5802 5807 5810 5810 5812 5815 5817 5821 5820 5820 5823 5826 5828 5828 5833 5836 5836 5837 5838 5837 5835 5833 5831 5831 5832 5831 5830 5828 5826 5824 5823 5822 5822 5822 5821 5821 5822 5822 5821 5820 5820 5819
5790 5792 5795 5799 5802 5805 5806 5808 5813 5817 5813 5813 5816 5819 5823 5823 5827 5830 5831 5832 5832 5831 5829 5828 5826 5826 5826 5826 5825 5822 5820 5819 5817 5817 5816 5816 5816 5816 5815 5815 5814 5813 5812 5811
5780 5785 5787 5792 5793 5796 5799 5802 5806 5809 5807 5807 5808 5809 5818 5818 5822 5823 5825 5827 5826 5825 5824 5822 5821 5820 5818 5819 5818 5816 5814 5812 5811 5810 5809 5810 5810 5810 5809 5808 5807 5806 5805 5804
5769 5773 5778 5782 5787 5789 5792 5795 5797 5799 5800 5799 5800 5796 5807 5814 5816 5817 5819 5819 5819 5818 5817 5816 5815 5814 5811 5810 5810 5808 5806 5805 5804 5802 5802 5803 5802 5802 5801 5800 5800 5798 5797 5796
5764 5766 5769 5774 5779 5780 5782 5785 5786 5788 5791 5792 5794 5789 5794 5806 5809 5812 5812 5813 5812 5812 5811 5810 5809 5806 5806 5803 5801 5800 5798 5797 5796 5795 5795 5795 5794 5793 5793 5793 5791 5790 5789 5788
5750 5754 5758 5763 5768 5769 5773 5774 5776 5779 5781 5783 5788 5786 5782 5793 5799 5802 5805 5805 5806 5804 5804 5803 5801 5800 5798 5796 5793 5791 5790 5789 5788 5787 5786 5786 5785 5784 5785 5785 5783 5782 5780 5779
5740 5744 5749 5753 5757 5760 5762 5764 5765 5767 5768 5774 5773 5777 5776 5780 5782 5789 5795 5795 5795 5796 5796 5794 5792 5791 5789 5787 5785 5783 5780 5780 5778 5778 5778 5777 5776 5776 5776 5776 5775 5773 5771 5769
5725 5730 5736 5743 5748 5750 5752 5754 5755 5754 5756 5763 5761 5765 5772 5771 5773 5776 5779 5782 5784 5785 5785 5785 5783 5781 5778 5775 5773 5771 5770 5769 5769 5768 5768 5767 5767 5767 5767 5765 5764 5762 5761 5759
5716 5718 5725 5731 5735 5736 5739 5739 5749 5742 5745 5743 5751 5758 5761 5765 5767 5765 5768 5766 5769 5773 5773 5773 5774 5773 5769 5765 5761 5759 5757 5756 5757 5757 5757 5756 5756 5756 5756 5754 5753 5752 5750 5749
5706 5705 5709 5715 5719 5723 5725 5729 5730 5729 5731 5730 5739 5745 5749 5755 5754 5754 5754 5757 5757 5756 5758 5760 5760 5760 5759 5756 5751 5748 5746 5744 5744 5745 5746 5746 5745 5745 5744 5743 5742 5741 5740 5738
5693 5694 5698 5701 5705 5710 5713 5715 5717 5718 5723 5721 5725 5731 5740 5740 5740 5741 5743 5744 5745 5744 5741 5742 5743 5744 5744 5745 5742 5738 5737 5735 5735 5735 5735 5734 5733 5733 5732 5731 5731 5730 5729 5728
5679 5678 5684 5690 5691 5695 5697 5704 5704 5702 5708 5707 5714 5719 5729 5730 5730 5727 5728 5731 5733 5732 5728 5727 5728 5728 5730 5728 5731 5729 5727 5726 5726 5726 5725 5724 5723 5722 5722 5720 5719 5718 5717 5716
5666 5668 5673 5676 5678 5680 5684 5690 5694 5696 5696 5696 5699 5712 5723 5717 5716 5717 5718 5718 5715 5714 5717 5715 5713 5712 5712 5713 5713 5715 5716 5716 5716 5716 5714 5713 5711 5710 5709 5709 5708 5707 5706 5705
5653 5655 5660 5666 5665 5667 5670 5673 5676 5678 5676 5687 5683 5698 5708 5706 5703 5703 5704 5702 5700 5700 5701 5701 5700 5699 5698 5699 5699 5700 5702 5702 5703 5703 5702 5699 5698 5697 5696 5695 5695 5694 5693 5692
5640 5643 5647 5651 5655 5655 5655 5656 5660 5662 5669 5662 5681 5675 5694 5689 5691 5687 5686 5687 5686 5685 5684 5684 5685 5685 5687 5686 5687 5687 5687 5688 5687 5686 5686 5684 5683 5683 5682 5681 5681 5680 5679 5678
5628 5631 5633 5641 5641 5640 5640 5646 5647 5648 5653 5650 5661 5660 5685 5679 5674 5670 5671 5671 5671 5672 5672 5672 5672 5672 5673 5673 5674 5673 5673 5673 5673 5673 5671 5671 5671 5670 5669 5669 5667 5667 5666 5664
5616 5618 5618 5627 5623 5623 5624 5644 5635 5638 5642 5641 5641 5657 5658 5659 5659 5653 5654 5658 5659 5660 5660 5659 5659 5658 5661 5661 5660 5660 5660 5660 5660 5659 5659 5658 5658 5657 5656 5656 5654 5653 5651 5649
5605 5606 5603 5611 5606 5604 5628 5624 5626 5625 5629 5626 5627 5639 5641 5641 5643 5637 5646 5645 5646 5646 5647 5649 5647 5647 5646 5646 5647 5648 5647 5647 5646 5645 5645 5644 5643 5642 5641 5641 5639 5637 5636 5634
5589 5590 5587 5585 5589 5593 5605 5621 5613 5607 5614 5613 5612 5625 5627 5625 5618 5632 5633 5626 5631 5631 5633 5635 5635 5635 5633 5633 5633 5632 5632 5631 5631 5630 5630 5629 5629 5628 5627 5625 5623 5622 5619 5617
5575 5574 5571 5577 5572 5572 5604 5601 5593 5588 5587 5598 5602 5609 5610 5610 5604 5619 5614 5612 5612 5615 5617 5618 5619 5620 5621 5620 5619 5618 5617 5616 5616 5615 5614 5613 5612 5611 5610 5608 5607 5604 5602 5600
5557 5558 5556 5559 5555 5556 5588 5580 5577 5564 5583 5582 5586 5590 5592 5593 5590 5598 5598 5598 5599 5599 5601 5602 5603 5604 5605 5605 5605 5604 5603 5603 5602 5600 5599 5597 5596 5595 5593 5590 5589 5587 5585 5583
5540 5541 5543 5546 5543 5545 5567 5563 5560 5558 5560 5564 5567 5567 5570 5572 5573 5574 5579 5582 5582 5584 5586 5586 5587 5588 5589 5589 5588 5587 5587 5585 5584 5583 5582 5580 5578 5576 5574 5572 5570 5569 5566 5564
5522 5528 5530 5530 5531 5538 5545 5545 5541 5542 5545 5546 5546 5546 5549 5555 5558 5558 5562 5563 5562 5563 5565 5566 5567 5567 5568 5568 5568 5567 5566 5566 5564 5562 5560 5558 5557 5555 5554 5551 5550 5547 5545 5543
5507 5511 5507 5510 5522 5527 5526 5526 5524 5524 5530 5531 5530 5530 5532 5538 5538 5540 5541 5544 5543 5542 5542 5543 5545 5546 5546 5545 5544 5544 5543 5543 5542 5541 5541 5539 5537 5535 5533 5531 5530 5528 5525 5523
5491 5489 5497 5490 5506 5504 5504 5506 5502 5500 5506 5511 5511 5511 5514 5517 5524 5523 5524 5525 5526 5526 5526 5526 5527 5528 5526 5526 5525 5525 5523 5523 5522 5521 5521 5520 5519 5517 5515 5514 5512 5509 5506 5505
5477 5477 5473 5474 5488 5477 5480 5484 5480 5479 5484 5489 5489 5492 5493 5494 5501 5504 5505 5505 5508 5508 5510 5508 5510 5510 5508 5508 5505 5505 5505 5504 5504 5503 5502 5501 5500 5499 5497 5496 5495 5492 5489 5487